"Pseudo-MPEC" for P117TQ1

Created 2020 Oct 19 14:07:22 UT using Find_Orb

Click here for an explanation of pseudo-MPECs

 
 Astrometry: 
     P117TQ1  C2020 10 154j/KJ`u%AstrometryVTV5@[+u-sYuyubX(AV,redacted;VGo'KF51
     P117TQ1  C2020 10 15IAFNwT(TiH5oSdW'xRZMo8U6o;lp0MAYnAaFODT?lCh-y[_,;2!-F51
     P117TQ1  C2020 10 15g7V(^LleG%ZhAZe471WYe3F$?;6@IX1%:IRa5SfIva)nq_8NrWl+F51
     P117TQ1  C2020 10 16$JJ?aDhs0H3YTtH-;K)Tw)K6uS/R:0J?*ecr^MtraNF/\a[?iqGoF51
     P117TQ1  C2020 10 16-v(19'PCl9o+gjWNr#7T?LN]pE^?,ZAID4/Kd,qWxFYr7'VDU9:TF51
     P117TQ1  C2020 10 16wY`1UcMyw]$aiOsE,qE?xVpE2:T%/.Bngw2;P/R.KA^xAjoclickF51
     P117TQ1  C2020 10 17f/m^@c),X]2gEh/nV-K]i#lnD*l?Nb`7/DWs(d+?Prer'YNh9yL(F51
     P117TQ1  C2020 10 17rQ!CtP_Zgo%yBa=MGEE?XnoqGuT$m+YI(SSh4t]ms%.j,h7Q4W1FF51
     P117TQ1  C2020 10 17%rL!PH1cKm=$[+yrRLQ`=](Thp1=65=\;G^10s(4/gg'?:3Y1paeF51
     P117TQ1  C2020 10 189XQ9OAsd8UY`n9K$f-lutZW9NjL_:g$Sy/FNQ@lCOK)C.G+;nZ5(F51
     P117TQ1  C2020 10 187(V[ToPvs)uhere)PJ4JWyB;C`IDE?8.@q7vSEE]A?@=JAjt]!tYF51
     P117TQ1  C2020 10 18=t@as9TforyGtq^K$^pa%i'vER=5LU7h-qMY6fexplanationg5hF51

Station data:
(F51) Pan-STARRS 1, Haleakala  (N20.707235 W156.255910)  US/Hawaii.
   Observers N. Primak, A. Schultz, S. Watters, J. Thiel, T. Goggia. Measurer
   PS1 Science Consortium. 1.8-m Ritchey-Chrétien + CCD.

Orbital elements:  P117TQ1
   Perihelion 2020 Nov 19.851999 +/- 0.0204 TT = 20:26:52 (JD 2459173.351999)
Epoch 2020 Oct 18.0 TT = JDT 2459140.5   Earth MOID: 0.0376   AutoNEOCP
M 346.09540819 +/- 0.07             (J2000 ecliptic)
n   0.42324948 +/- 0.00215          Peri.   30.68966 +/- 0.010
a   1.75686512 +/- 0.00594          Node    30.40425 +/- 0.0023
e   0.4329525 +/- 0.00189           Incl.   11.41428 +/- 0.036
P   2.33/850.55d           H 25.8   G  0.15   U  8.6  
q 0.99622582 +/- 5.97e-5    Q 2.51750442 +/- 0.0119
From 12 observations 2020 Oct. 15-18; mean residual 0".18
Residuals in arcseconds: 
201015 F51  .08-  .00     201016 F51  .01+  .28+    201017 F51  .06-  .05+    
201015 F51  .05+  .08+    201016 F51  .01-  .02-    201018 F51  .02+  .10+    
201015 F51  .04-  .19-    201017 F51  .08+  .66-    201018 F51  .03+  .07-    
201016 F51  .05+  .03+    201017 F51  .10+  .38+    201018 F51  .13-  .03+    

Ephemerides (geocentric):
Date (UTC) HH   RA              Dec         delta   r     elong  mag " sig PA
---- -- -- --  -------------   -----------  ------ ------ -----  --- ---- ---
2020 10 19 14  01 09 39.290   -10 16 38.64  .06442 1.0561 158.4 20.9 .249 172
2020 10 19 15  01 09 37.999   -10 09 59.62  .06424 1.0559 158.5 20.9 .248 172
2020 10 19 16  01 09 36.704   -10 03 18.25  .06406 1.0558 158.5 20.9 .247 172
2020 10 19 17  01 09 35.406   -09 56 34.52  .06388 1.0556 158.6 20.9 .246 172
2020 10 19 18  01 09 34.104   -09 49 48.42  .06370 1.0555 158.7 20.9 .245 171
2020 10 19 19  01 09 32.798   -09 42 59.93  .06353 1.0553 158.8 20.9 .243 171
2020 10 19 20  01 09 31.489   -09 36 09.04  .06335 1.0552 158.8 20.9 .242 171
2020 10 19 21  01 09 30.175   -09 29 15.72  .06317 1.0550 158.9 20.9 .240 171
2020 10 19 22  01 09 28.858   -09 22 19.97  .06299 1.0549 159.0 20.9 .238 171
2020 10 19 23  01 09 27.537   -09 15 21.77  .06281 1.0547 159.1 20.9 .237 171
2020 10 20 00  01 09 26.213   -09 08 21.09  .06263 1.0546 159.2 20.9 .235 171
2020 10 20 01  01 09 24.885   -09 01 17.93  .06246 1.0544 159.2 20.9 .233 171
2020 10 20 02  01 09 23.552   -08 54 12.27  .06228 1.0543 159.3 20.8 .231 171
2020 10 20 03  01 09 22.216   -08 47 04.09  .06210 1.0541 159.4 20.8 .228 171
2020 10 20 04  01 09 20.877   -08 39 53.38  .06193 1.0540 159.5 20.8 .226 171
2020 10 20 05  01 09 19.533   -08 32 40.11  .06175 1.0538 159.6 20.8 .224 171
2020 10 20 06  01 09 18.186   -08 25 24.28  .06158 1.0537 159.6 20.8 .221 171
2020 10 20 07  01 09 16.834   -08 18 05.86  .06140 1.0535 159.7 20.8 .219 171
2020 10 20 08  01 09 15.479   -08 10 44.84  .06122 1.0534 159.8 20.8 .216 171
2020 10 20 09  01 09 14.120   -08 03 21.20  .06105 1.0532 159.9 20.8 .213 171
2020 10 20 10  01 09 12.757   -07 55 54.93  .06088 1.0531 160.0 20.8 .210 171
2020 10 20 11  01 09 11.389   -07 48 26.01  .06070 1.0529 160.1 20.8 .207 172
2020 10 20 12  01 09 10.018   -07 40 54.41  .06053 1.0528 160.1 20.8 .203 172
2020 10 20 13  01 09 08.643   -07 33 20.13  .06035 1.0526 160.2 20.7 .200 172
2020 10 20 14  01 09 07.264   -07 25 43.14  .06018 1.0525 160.3 20.7 .196 172
2020 10 20 15  01 09 05.881   -07 18 03.44  .06001 1.0523 160.4 20.7 .193 172
2020 10 20 16  01 09 04.494   -07 10 20.99  .05984 1.0522 160.5 20.7 .189 172
2020 10 20 17  01 09 03.103   -07 02 35.79  .05966 1.0520 160.6 20.7 .185 172
2020 10 20 18  01 09 01.708   -06 54 47.81  .05949 1.0519 160.6 20.7 .181 173
2020 10 20 19  01 09 00.309   -06 46 57.04  .05932 1.0517 160.7 20.7 .176 173
2020 10 20 20  01 08 58.906   -06 39 03.46  .05915 1.0516 160.8 20.7 .172 173
2020 10 20 21  01 08 57.498   -06 31 07.05  .05898 1.0514 160.9 20.7 .167 173
2020 10 20 22  01 08 56.086   -06 23 07.80  .05881 1.0513 161.0 20.7 .163 174
2020 10 20 23  01 08 54.671   -06 15 05.68  .05864 1.0512 161.1 20.7 .158 174
2020 10 21 00  01 08 53.251   -06 07 00.68  .05847 1.0510 161.2 20.6 .153 174
2020 10 21 01  01 08 51.827   -05 58 52.78  .05830 1.0509 161.2 20.6 .147 175
2020 10 21 02  01 08 50.398   -05 50 41.96  .05813 1.0507 161.3 20.6 .142 175
2020 10 21 03  01 08 48.965   -05 42 28.20  .05796 1.0506 161.4 20.6 .136 176
2020 10 21 04  01 08 47.529   -05 34 11.49  .05780 1.0504 161.5 20.6 .131 176
2020 10 21 05  01 08 46.087   -05 25 51.81  .05763 1.0503 161.6 20.6 .125 177
2020 10 21 06  01 08 44.642   -05 17 29.13  .05746 1.0501 161.7 20.6 .119 178
2020 10 21 07  01 08 43.192   -05 09 03.45  .05730 1.0500 161.8 20.6 .112 179
2020 10 21 08  01 08 41.738   -05 00 34.73  .05713 1.0498 161.9 20.6 .106   0
2020 10 21 09  01 08 40.279   -04 52 02.96  .05696 1.0497 162.0 20.6 .099   1
2020 10 21 10  01 08 38.816   -04 43 28.13  .05680 1.0496 162.0 20.6 .093   3
2020 10 21 11  01 08 37.349   -04 34 50.21  .05663 1.0494 162.1 20.5 .086   4
2020 10 21 12  01 08 35.877   -04 26 09.19  .05647 1.0493 162.2 20.5 .079   7
2020 10 21 13  01 08 34.400   -04 17 25.05  .05630 1.0491 162.3 20.5 .072   9